Hourly Data Report for January 11, 2018

All times are specified in Local Standard Time (LST). Add 1 hour to adjust for Daylight Saving Time where and when it is observed.

TORONTO INTL A
ONTARIO

43°40'36.000" N
79°37'50.000" W
173.40 m
6158731
71624
YYZ

Download Data

Hourly Data (January 2018)
Hourly Data Report for January 11, 2018
Temp Definition
°C
Dew Point Temp Definition
°C
Rel Hum Definition
%
Wind Dir Definition
10's deg

Wind Spd Definition
km/h
Visibility Definition
km
Stn Press Definition
kPa
Hmdx Definition


Wind Chill Definition


Weather Definition


TIME
00:00 Legend Double Dagger 4.5 3.4 93 19 5 19.3 99.54     LegendNANA
01:00 Legend Double Dagger 6.6 4.9 89 19 18 24.1 99.45     Cloudy
02:00 Legend Double Dagger 4.5 2.7 88 15 11 24.1 99.44     LegendNANA
03:00 Legend Double Dagger 4.8 2.9 87 14 11 24.1 99.50     LegendNANA
04:00 Legend Double Dagger 5.1 2.8 85 15 10 24.1 99.47     Cloudy
05:00 Legend Double Dagger 5.6 3.4 86 17 6 24.1 99.46     LegendNANA
06:00 Legend Double Dagger 7.8 4.8 81 19 16 24.1 99.44     LegendNANA
07:00 Legend Double Dagger 8.3 4.4 76 19 16 24.1 99.44     Mostly Cloudy
08:00 Legend Double Dagger 9.0 5.2 77 20 22 24.1 99.48     LegendNANA
09:00 Legend Double Dagger 9.4 5.7 77 21 23 24.1 99.50     LegendNANA
10:00 Legend Double Dagger 10.0 6.1 77 20 20 24.1 99.51     Mostly Cloudy
11:00 Legend Double Dagger 10.6 6.3 75 20 22 24.1 99.50     LegendNANA
12:00 Legend Double Dagger 11.4 6.6 72 19 18 24.1 99.40     LegendNANA
13:00 Legend Double Dagger 11.7 6.7 71 20 14 24.1 99.30     Mostly Cloudy
14:00 Legend Double Dagger 12.3 7.3 71 20 16 24.1 99.26     LegendNANA
15:00 Legend Double Dagger 12.4 7.5 71 19 16 24.1 99.21     LegendNANA
16:00 Legend Double Dagger 11.8 7.8 76 20 13 19.3 99.15     Moderate Rain
17:00 Legend Double Dagger 9.8 7.4 85 16 13 19.3 99.13     Rain
18:00 Legend Double Dagger 10.5 9.1 91 18 13 16.1 99.09     Rain
19:00 Legend Double Dagger 10.5 9.5 94 17 13 6.4 99.03     Rain,Fog
20:00 Legend Double Dagger 10.5 9.7 95 18 18 4.8 98.98     Rain,Fog
21:00 Legend Double Dagger 10.2 9.5 95 19 19 6.4 98.92     Rain,Fog
22:00 Legend Double Dagger 10.2 9.5 95 19 21 9.7 98.84     Rain
23:00 Legend Double Dagger 10.1 9.4 95 18 20 9.7 98.77     Rain

Notes on Data Quality.

Legend

  • E = Estimated
  • M = Missing
  • NA = Not Available
  • ‡ = Partner data that is not subject to review by the National Climate Archives
Date modified: